AirNav   Everest Fuels
 
 368 users online  

27LL Sullivan Field Airport
Valmeyer, Illinois, USA

GOING TO VALMEYER?


FAA INFORMATION EFFECTIVE 05 NOVEMBER 2020

Location

FAA Identifier: 27LL
Lat/Long: 38-22-24.2100N 090-19-14.3700W
38-22.403500N 090-19.239500W
38.3733917,-90.3206583
(estimated)
Elevation: 400 ft. / 122 m (estimated)
Variation: 02E (1985)
From city: 4 miles N of VALMEYER, IL
Time zone: UTC -6 (UTC -5 during Daylight Saving Time)
Zip code: 62295

Airport Operations

Airport use: Private use. Permission required prior to landing
Activation date: 11/1977
Control tower: no
ARTCC: KANSAS CITY CENTER
FSS: COLUMBIA FLIGHT SERVICE STATION
Attendance: DAYLIGHT HOURS
Wind indicator: yes
Segmented circle: no

Airport Communications

WX ASOS at CPS (14 nm NE): PHONE 618-332-0001

Nearby radio navigation aids

VOR radial/distance  VOR name  Freq  Var
TOYr217/28.9TROY VORTAC116.0004E
STLr164/30.2ST LOUIS VORTAC117.4001E
FTZr117/36.1FORISTELL VORTAC110.8005E

 
NDB name  Hdg/Dist  Freq  Var  ID
CIVIC MEMORIAL203/33.526301WCVM -.-. ...- --

Airport Services

Runway Information

Runway 9/27

Dimensions: 1800 x 80 ft. / 549 x 24 m
Surface: turf
RUNWAY 9  RUNWAY 27
Traffic pattern: leftleft

Airport Ownership and Management from official FAA records

Ownership: Privately-owned
Owner: SULLIVAN FIELD INC.
3223 CEDAR RIDGE LN
WATERLOO, IL 62298
Phone 618-939-4142
Manager: MIKE MERKAN
8000 B ROAD
VALMEYER, IL 62295
Phone (618) 444-3420
618-444-3420

Airport Operational Statistics

Aircraft based on the field: 22
Single engine airplanes: 8
Ultralights: 14
    

Additional Remarks

FOR CD CTC ST LOUIS APCH AT 314-890-1018.

Instrument Procedures

There are no published instrument procedures at 27LL.

Some nearby airports with instrument procedures:

KFES - Festus Memorial Airport (11 nm S)
KCPS - St Louis Downtown Airport (14 nm NE)
KSTL - St Louis Lambert International Airport (23 nm N)
1H0 - Creve Coeur Airport (23 nm N)
KSUS - Spirit of St Louis Airport (23 nm NW)
 
Loc | Ops | Rwys | IFR | FBO | Links
Com | Nav | Svcs | Stats | Notes
Area around 27LL (Sullivan Field Airport)
 
Road maps at: MapQuest Bing Google
 
Aerial photo
WARNING: Photo may not be current or correct
Aerial photo of 27LL (Sullivan Field Airport)
Do you have a better or more recent aerial photo of Sullivan Field Airport that you would like to share? If so, please send us your photo.

 
Sectional chart

 
Airport distance calculator
Flying to Sullivan Field Airport? Find the distance to fly.

From to 27LL

Sunrise and sunset
Times for 30-Nov-2020
 Local
(UTC-6)
 Zulu
(UTC)
Morning civil twilight06:3112:31
Sunrise07:0113:01
Sunset16:4022:40
Evening civil twilight17:0923:09

Current date and time
Zulu (UTC)  30-Nov-2020 09:30:40
Local (UTC-6)  30-Nov-2020 03:30:40
 
METAR
KCPS 
14nm NE 
300853Z AUTO 31021G31KT 10SM OVC048 01/M05 A3006 RMK AO2 PK WND 30033/0839 SLP182 T00061050 53001
KSUS 
23nm NW 
300854Z AUTO 30010G21KT 10SM OVC046 00/M07 A3009 RMK AO2 SLP195 T00001067 55002
KSTL 
23nm N 
300851Z 31016G24KT 10SM FEW035 BKN047 01/M06 A3007 RMK AO2 PK WND 31029/0817 SLP187 60000 T00061056 55002
KBLV 
25nm NE 
300856Z AUTO 32015G23KT 10SM OVC046 01/M04 A3003 RMK AO2 PK WND 31029/41 SLP175 T00111043 53006 $
TAF
KCPS 
14nm NE 
300520Z 3006/0106 33017G29KT P6SM OVC035 FM301200 32014G25KT P6SM OVC030 FM301700 32014G22KT P6SM BKN040 FM010100 31008KT P6SM SKC
NOTAMs
Click for the latest NOTAMs
NOTAMs are issued by the DoD/FAA and will open in a separate window not controlled by AirNav.

 

 
 

Would you like to see your business listed on this page?

 If your business provides an interesting product or service to pilots, flight crews, aircraft, or users of the Sullivan Field Airport, you should consider listing it here.  To start the listing process, click on the button below
 
Add a business
 

Other Pages about Sullivan Field Airport

Update a link
 
Copyright © AirNav, LLC. All rights reserved. Privacy Policy  Contact